Location: Drummondville
(45.8830°N, 72.4830°W)
Time: 23:16:40
(UTC-04:00)

Vanguard 2 - All Passes

Search period start: 19 July 2018 00:00
Search period end: 29 July 2018 00:00
Orbit: 553 x 2939 km, 32.9° (Epoch: 19 July)

Date Brightness Start Highest point End Pass type
(mag) Time Alt. Az. Time Alt. Az. Time Alt. Az.
19 Jul - 01:22:02 10° W 01:34:40 26° SW 01:44:44 10° S visible
19 Jul - 17:01:27 10° S 17:10:59 22° SE 17:22:30 10° E daylight
19 Jul - 19:06:34 10° SW 19:20:24 44° SSE 19:36:29 10° E daylight
19 Jul - 21:15:30 10° WSW 21:31:38 52° S 21:47:34 10° ESE visible
19 Jul - 23:26:47 10° W 23:42:45 42° SSW 23:56:14 10° SE visible
20 Jul - 01:41:10 10° W 01:51:58 21° SW 02:00:56 10° S visible
20 Jul - 17:17:47 10° SSW 17:28:19 28° SE 17:41:29 10° E daylight
20 Jul - 19:24:02 10° SW 19:38:09 47° SSE 19:54:38 10° E daylight
20 Jul - 21:33:26 10° WSW 21:49:32 52° S 22:05:23 10° ESE visible
20 Jul - 23:45:05 10° W 00:00:24 37° SSW 00:13:28 10° SSE visible
21 Jul - 02:01:07 10° WSW 02:09:10 16° SW 02:16:13 10° SSW visible
21 Jul - 15:34:47 10° SE 15:37:50 11° SE 15:41:08 10° ESE daylight
21 Jul - 17:34:34 10° SSW 17:45:45 33° SSE 18:00:06 10° E daylight
21 Jul - 19:41:40 10° WSW 19:56:00 50° S 20:12:43 10° ESE daylight
21 Jul - 21:51:26 10° W 22:07:26 49° SSW 22:23:05 10° SE visible
22 Jul - 00:03:34 10° W 00:17:57 32° SSW 00:30:23 10° SSE visible
22 Jul - 02:24:15 10° WSW 02:26:18 10° SW 02:28:17 10° SW visible
22 Jul - 15:48:30 10° SSE 15:54:58 16° SE 16:02:45 10° ESE daylight
22 Jul - 17:51:41 10° SW 18:03:18 39° SSE 18:18:30 10° E daylight
22 Jul - 19:59:25 10° WSW 20:13:54 52° S 20:30:42 10° ESE daylight
22 Jul - 22:09:32 10° W 22:25:16 46° SSW 22:40:37 10° SE visible
23 Jul - 00:22:19 10° W 00:35:24 26° SW 00:46:55 10° S visible
23 Jul - 16:04:14 10° S 16:12:10 21° SE 16:22:21 10° E daylight
23 Jul - 18:09:02 10° SW 18:20:58 43° SSE 18:36:46 10° E daylight
23 Jul - 20:17:16 10° WSW 20:31:50 52° S 20:48:37 10° ESE daylight
23 Jul - 22:27:43 10° W 22:43:03 41° SSW 22:57:58 10° SE visible
24 Jul - 00:41:31 10° W 00:52:46 21° SW 01:02:54 10° S visible
24 Jul - 16:20:43 10° SSW 16:29:29 27° SE 16:41:18 10° E daylight
24 Jul - 18:26:33 10° SW 18:38:43 47° SSE 18:54:56 10° E daylight
24 Jul - 20:35:12 10° WSW 20:49:45 50° S 21:06:25 10° ESE visible
24 Jul - 22:46:02 10° W 23:00:44 36° SSW 23:15:04 10° SSE visible
25 Jul - 01:01:40 10° WSW 01:10:03 15° SW 01:17:51 10° SSW visible
25 Jul - 16:37:37 10° SSW 16:46:54 32° SSE 16:59:54 10° E daylight
25 Jul - 18:44:13 10° WSW 18:56:33 49° S 19:13:01 10° ESE daylight
25 Jul - 20:53:12 10° W 21:07:39 48° SSW 21:24:05 10° SE visible
25 Jul - 23:04:33 10° W 23:18:21 31° SSW 23:31:51 10° SSE visible
26 Jul - 01:25:51 10° SW 01:27:16 10° SW 01:28:41 10° SW visible
26 Jul - 14:52:01 10° SSE 14:56:43 14° SE 15:02:23 10° ESE daylight
26 Jul - 16:54:49 10° SW 17:04:28 37° SSE 17:18:18 10° E daylight
26 Jul - 19:01:59 10° WSW 19:14:26 50° S 19:31:00 10° ESE daylight
26 Jul - 21:11:17 10° W 21:25:31 44° SSW 21:41:33 10° SE visible
26 Jul - 23:23:22 10° W 23:35:53 25° SW 23:48:10 10° S visible
27 Jul - 15:07:46 10° S 15:13:57 19° SE 15:22:03 10° E daylight
27 Jul - 17:12:13 10° SW 17:22:07 41° SSE 17:36:33 10° E daylight
27 Jul - 19:19:50 10° WSW 19:32:21 49° S 19:48:54 10° ESE daylight
27 Jul - 21:29:29 10° W 21:43:20 39° SSW 21:58:48 10° SE visible
27 Jul - 23:42:45 10° W 23:53:20 20° SW 00:03:48 10° S visible
28 Jul - 15:24:19 10° SSW 15:31:17 24° SE 15:40:59 10° E daylight
28 Jul - 17:29:47 10° SW 17:39:52 44° SSE 17:54:42 10° ESE daylight
28 Jul - 19:37:46 10° WSW 19:50:17 47° S 20:06:40 10° ESE daylight
28 Jul - 21:47:50 10° W 22:01:05 34° SSW 22:15:46 10° SSE visible
